Regional Weather Roundup
Issued by NWS

Home | Current Version | Previous Version | Graphics & Text | Print | Product List | Glossary On
Versions: 1 2 3 4 5 6 7 8 9 10 11 12 13 14 15 16 17 18 19 20 21 22 23 24 25 26 27 28 29 30 31 32 33 34 35 36 37 38 39 40 41 42 43 44 45 46 47 48 49 50
000
ASUS45 KBOU 250907
RWRCO

WEATHER ROUNDUP FOR COLORADO
NATIONAL WEATHER SERVICE DENVER/BOULDER CO
200 AM MST THU DEC 25 2014

NOTE: "FAIR" INDICATES FEW OR NO CLOUDS BELOW 12000 FEET WITH NO
SIGNIFICANT WEATHER AND/OR OBSTRUCTIONS TO VISIBILITY.

COZ001>005-013-030-031-251000-
...NORTHWEST COLORADO...

CITY           SKY/WX    TMP DP  RH WIND       PRES   REMARKS
CRAIG          FLURRIES  27  20  75 NE3       29.54F
HAYDEN         CLOUDY    23  18  80 E5        29.55R WCI  17
MEEKER         CLOUDY    31  19  61 E6        29.54F WCI  25
MOUNT WERNER   NOT AVBL
STEAMBOAT SPGS CLOUDY    20  17  88 E7        29.54F WCI  11
WALDEN         MOCLDY    23  14  68 S9        29.52S WCI  13
$$

COZ006>008-011-251000-
...WEST CENTRAL VALLEYS...

CITY           SKY/WX    TMP DP  RH WIND       PRES   REMARKS
GRAND JUNCTION CLOUDY    27  21  78 CALM      29.57F
MONTROSE       CLOUDY    29  17  61 E8        29.61F WCI  21
EAGLE          CLOUDY    16  12  86 CALM      29.64F
RIFLE          CLOUDY    25  17  72 NE3       29.63F
DELTA          CLOUDY    32  19  58 NE8       29.61F WCI  25
NUCLA          CLOUDY    32  19  59 CALM      29.65F
$$

COZ017>023-064>068-251000-
...SOUTHWEST COLORADO...

CITY           SKY/WX    TMP DP  RH WIND       PRES   REMARKS
DURANGO        CLOUDY    25  15  66 CALM      29.73F
CORTEZ         CLEAR     28  16  60 CALM      29.67F
PAGOSA SPRINGS CLOUDY    20   9  60 CALM      29.76F
TELLURIDE      CLOUDY    31  18  57 SE14G28   29.64F WCI  21
WOLF CREEK PAS CLOUDY    12   5  73 MISG      29.71F
$$

COZ009-010-012-014-032>034-037-058>063-251000-
...CENTRAL COLORADO...

CITY           SKY/WX    TMP DP  RH WIND       PRES   REMARKS
ASPEN          CLOUDY    20  15  81 SW6       29.56F WCI  12
BUENA VISTA    PTCLDY    19   8  63 CALM      29.61S
COPPER MTN     CLOUDY    25  18  74 SW14G26   29.60F WCI  13
BERTHOUD PASS  MOCLDY    18  12  79 MISG      29.56F
COTTONWOOD PAS CLOUDY    30  18  59 NW10G23   29.61R WCI  21
GUNNISON       MOCLDY     3 N/A N/A NE5       29.72F WCI  -6
KREMMLING      CLOUDY     3   0  85 CALM      29.61F
LEADVILLE      CLOUDY    17  10  74 E3        29.58S
MONARCH PASS   CLOUDY    14  10  85 MISG      29.73F
SALIDA         PTCLDY    31   8  36 SW9G16    29.70R WCI  23
SUNLIGHT       SNOW     N/A N/A N/A MISG      29.56F VSB 1/2
WILKERSON PASS PTCLDY    18  12  79 SW13      29.60F WCI   4
$$

COZ069>075-251000-
...SAN LUIS VALLEY/SANGRE DE CRISTO MOUNTAINS...

CITY           SKY/WX    TMP DP  RH WIND       PRES   REMARKS
ALAMOSA        PTCLDY     6   0  76 N5        29.72S WCI  -3
LA VETA PASS   NOT AVBL
SAGUACHE       PTCLDY    12   3  67 N14       29.72F WCI  -3
$$

COZ035-036-038>040-251000-
...NORTHERN COLORADO FRONT RANGE...

CITY           SKY/WX    TMP DP  RH WIND       PRES   REMARKS
DENVER INTL AP MOCLDY    36  17  46 SW13      29.41F
DMNS CITY PARK   N/A     36  15  41 S6        29.42S
AURORA         MOCLDY    35  16  45 S12       29.42F WCI  27
FRONT RANGE AP NOT AVBL
ERIE MUNI ARPT   N/A     37  18  45 SE6       29.39F
BOULDER MUN AP PTCLDY    39  19  45 NW7       29.39F
CENTENNIAL     MOCLDY    33  18  53 S8        29.43F WCI  26
BROOMFIELD     PTCLDY    37  18  44 SW8       29.41F
FORT COLLINS   MOCLDY    32  16  51 E3        29.41F
LONGMONT       MOCLDY    32  18  55 E3        29.42S
$$

COZ041-046-047-076>085-087-088-251000-
...PIKES PEAK/PALMER DIVIDE AND SOUTHERN FOOTHILLS...

CITY           SKY/WX    TMP DP  RH WIND       PRES   REMARKS
COLO. SPRINGS  PTCLDY    37  10  32 VRB5      29.49S
A. F. ACADEMY  CLEAR     33  11  38 N12       29.48F WCI  25
ELLICOTT       NOT AVBL
FALCON         PTCLDY    35  11  36 NW6       29.50S WCI  30
FORT CARSON    CLEAR     30  14  51 N6        29.46F WCI  24
LIMON          CLOUDY    23  21  92 CALM      29.45S
MONUMENT HILL  PTCLDY    34  14  44 SW14      29.47F WCI  24
TRINIDAD       PTCLDY    33  14  45 NW5       29.54F WCI  29
$$

COZ042>045-048>051-090-091-251000-
...NORTHEAST COLORADO...

CITY           SKY/WX    TMP DP  RH WIND       PRES   REMARKS
GREELEY ARPT   MOCLDY    21  10  63 CALM      29.41F
AKRON          CLOUDY    29  22  75 W12       29.42S WCI  19
BURLINGTON     CLOUDY    35  23  61 SW5       29.43F WCI  31
WRAY           CLOUDY    32  24  71 CALM      29.44R
STERLING       CLOUDY    27  23  86 W5        29.42F WCI  21
HOLYOKE        CLOUDY    30  27  86 CALM      29.43F
FORT MORGAN    CLOUDY    25  21  83 CALM      29.43F
$$

COZ086-089-092>099-251000-
...SOUTHEAST COLORADO...

CITY           SKY/WX    TMP DP  RH WIND       PRES   REMARKS
PUEBLO         PTCLDY    28  17  63 SW6       29.48S WCI  22
LA JUNTA       MOCLDY    41  17  38 W15       29.46F
LAMAR          CLOUDY    30  22  72 W6        29.46F WCI  24
SPRINGFIELD      N/A     35  22  58 W9        29.47F WCI  28
$$



USA.gov is the U.S. government's official web portal to all federal, state and local government web resources and services.